• In Czech Republic
  • List of Countries
  • For 7 days
  • Water Temperature
  • Satellite Maps
  • Weather Map
  • Weather Widgets
  • user-avatar
    Login

    Hourly Weather Belnyaki

    Today, 20 September, Thursday

    Time Temperature Precipitation Wind Pressure Humidity
    00:00 +17°C° 0 mm 3 mps 748 mmHg 93%
    01:00 +17°C° 0 mm 3 mps 749 mmHg 94%
    02:00 +16°C° 0 mm 2 mps 749 mmHg 95%
    03:00 +16°C° 0 mm 2 mps 749 mmHg 95%
    04:00 +15°C° 0 mm 2 mps 749 mmHg 96%
    05:00 +15°C° 0 mm 2 mps 749 mmHg 96%
    06:00 +16°C° 0 mm 2 mps 749 mmHg 92%
    07:00 +16°C° 0 mm 2 mps 750 mmHg 89%
    08:00 +17°C° 0 mm 2 mps 750 mmHg 85%
    09:00 +19°C° 0 mm 2 mps 750 mmHg 76%
    10:00 +21°C° 0 mm 2 mps 750 mmHg 67%
    11:00 +22°C° 0 mm 3 mps 750 mmHg 58%
    12:00 +24°C° 0 mm 3 mps 750 mmHg 55%
    13:00 +25°C° 0 mm 3 mps 750 mmHg 52%
    14:00 +26°C° 0 mm 3 mps 750 mmHg 50%
    15:00 +25°C° 0 mm 2 mps 750 mmHg 55%
    16:00 +24°C° 0 mm 2 mps 750 mmHg 60%
    17:00 +23°C° 0 mm 1 mps 750 mmHg 65%
    18:00 +22°C° 0 mm 1 mps 750 mmHg 70%
    19:00 +21°C° 0 mm 1 mps 750 mmHg 75%
    20:00 +19°C° 0 mm 1 mps 750 mmHg 81%
    21:00 +19°C° 0 mm 1 mps 750 mmHg 83%
    22:00 +19°C° 0 mm 1 mps 750 mmHg 86%
    23:00 +18°C° 0 mm 1 mps 750 mmHg 88%

    Tomorrow, 21 September, Friday

    Time Temperature Precipitation Wind Pressure Humidity
    00:00 +18°C° 0 mm 1 mps 750 mmHg 89%
    01:00 +18°C° 0 mm 1 mps 750 mmHg 91%
    02:00 +18°C° 0 mm 1 mps 750 mmHg 92%
    03:00 +17°C° 0 mm 2 mps 750 mmHg 93%
    04:00 +17°C° 0 mm 2 mps 750 mmHg 93%
    05:00 +16°C° 0 mm 2 mps 750 mmHg 93%
    06:00 +17°C° 0 mm 2 mps 750 mmHg 90%
    07:00 +18°C° 0 mm 2 mps 750 mmHg 86%
    08:00 +19°C° 0 mm 2 mps 751 mmHg 83%
    09:00 +21°C° 0 mm 3 mps 750 mmHg 77%
    10:00 +24°C° 0 mm 3 mps 750 mmHg 70%
    11:00 +26°C° 0 mm 3 mps 750 mmHg 64%
    12:00 +26°C° 0 mm 3 mps 750 mmHg 61%
    13:00 +27°C° 0 mm 4 mps 750 mmHg 58%
    14:00 +27°C° 0 mm 4 mps 750 mmHg 54%
    15:00 +26°C° 0 mm 3 mps 749 mmHg 58%
    16:00 +25°C° 0 mm 3 mps 749 mmHg 61%
    17:00 +24°C° 0 mm 3 mps 749 mmHg 64%
    18:00 +22°C° 0 mm 3 mps 748 mmHg 67%
    19:00 +20°C° 0 mm 3 mps 748 mmHg 71%
    20:00 +19°C° 0 mm 3 mps 748 mmHg 74%
    21:00 +19°C° 0 mm 4 mps 747 mmHg 72%
    22:00 +19°C° 0 mm 4 mps 747 mmHg 71%
    23:00 +18°C° 0 mm 4 mps 747 mmHg 70%

    Day after tomorrow, 22 September, Saturday

    Time Temperature Precipitation Wind Pressure Humidity
    00:00 +17°C° 0 mm 5 mps 746 mmHg 71%
    01:00 +17°C° 0 mm 5 mps 746 mmHg 72%
    02:00 +17°C° 0 mm 5 mps 745 mmHg 72%
    03:00 +17°C° 0 mm 5 mps 745 mmHg 73%
    04:00 +16°C° 0 mm 5 mps 744 mmHg 73%
    05:00 +16°C° 0 mm 5 mps 744 mmHg 74%
    06:00 +17°C° 0 mm 5 mps 744 mmHg 73%
    07:00 +17°C° 0 mm 6 mps 744 mmHg 72%
    08:00 +17°C° 0 mm 6 mps 744 mmHg 72%
    09:00 +17°C° 0.4 mm 5 mps 744 mmHg 75%
    10:00 +17°C° 0.4 mm 5 mps 744 mmHg 78%
    11:00 +16°C° 0.4 mm 5 mps 745 mmHg 81%
    12:00 +15°C° 1.1 mm 4 mps 745 mmHg 82%
    13:00 +14°C° 1.1 mm 4 mps 745 mmHg 84%
    14:00 +13°C° 1.1 mm 4 mps 745 mmHg 85%
    15:00 +13°C° 0.2 mm 3 mps 746 mmHg 85%
    16:00 +13°C° 0.2 mm 3 mps 746 mmHg 84%
    17:00 +13°C° 0.2 mm 3 mps 746 mmHg 84%
    18:00 +12°C° 0.3 mm 3 mps 746 mmHg 84%
    19:00 +11°C° 0.3 mm 3 mps 746 mmHg 84%
    20:00 +11°C° 0.3 mm 4 mps 746 mmHg 84%
    21:00 +11°C° 0.3 mm 4 mps 746 mmHg 85%
    22:00 +10°C° 0.3 mm 4 mps 746 mmHg 86%
    23:00 +10°C° 0.3 mm 4 mps 746 mmHg 86%

    23 September, Sunday

    Time Temperature Precipitation Wind Pressure Humidity
    00:00 +9°C° 0.1 mm 3 mps 746 mmHg 88%
    01:00 +9°C° 0.1 mm 3 mps 746 mmHg 90%
    02:00 +8°C° 0.1 mm 3 mps 745 mmHg 93%
    03:00 +8°C° 0 mm 3 mps 745 mmHg 93%
    04:00 +7°C° 0 mm 3 mps 745 mmHg 94%
    05:00 +7°C° 0 mm 3 mps 745 mmHg 95%
    06:00 +8°C° 0 mm 3 mps 745 mmHg 91%
    07:00 +8°C° 0 mm 4 mps 744 mmHg 88%
    08:00 +8°C° 0 mm 4 mps 744 mmHg 84%
    09:00 +10°C° 0 mm 5 mps 744 mmHg 78%
    10:00 +12°C° 0 mm 5 mps 744 mmHg 72%
    11:00 +13°C° 0 mm 6 mps 744 mmHg 66%
    12:00 +14°C° 0.2 mm 6 mps 744 mmHg 64%
    13:00 +14°C° 0.2 mm 7 mps 744 mmHg 62%
    14:00 +14°C° 0.2 mm 7 mps 744 mmHg 61%
    15:00 +13°C° 0.1 mm 6 mps 744 mmHg 63%
    16:00 +13°C° 0.1 mm 5 mps 744 mmHg 66%
    17:00 +12°C° 0.1 mm 4 mps 744 mmHg 69%
    18:00 +11°C° 0 mm 4 mps 744 mmHg 72%
    19:00 +10°C° 0 mm 4 mps 744 mmHg 75%
    20:00 +9°C° 0 mm 3 mps 744 mmHg 78%
    21:00 +9°C° 0 mm 3 mps 744 mmHg 80%
    22:00 +8°C° 0 mm 3 mps 744 mmHg 82%
    23:00 +8°C° 0 mm 3 mps 744 mmHg 85%

    24 September, Monday

    Time Temperature Precipitation Wind Pressure Humidity
    00:00 +7°C° 0 mm 3 mps 744 mmHg 86%
    01:00 +7°C° 0 mm 3 mps 744 mmHg 87%
    02:00 +7°C° 0 mm 2 mps 743 mmHg 88%
    03:00 +7°C° 0 mm 2 mps 743 mmHg 86%
    04:00 +7°C° 0 mm 3 mps 742 mmHg 84%
    05:00 +7°C° 0 mm 3 mps 742 mmHg 82%
    06:00 +7°C° 0 mm 3 mps 741 mmHg 79%
    07:00 +7°C° 0 mm 4 mps 741 mmHg 76%
    08:00 +8°C° 0 mm 5 mps 740 mmHg 74%
    09:00 +8°C° 1.2 mm 5 mps 739 mmHg 79%
    10:00 +8°C° 1.2 mm 6 mps 738 mmHg 83%
    11:00 +6°C° 1.2 mm 7 mps 738 mmHg 88%
    12:00 +7°C° 1.2 mm 8 mps 736 mmHg 88%
    13:00 +7°C° 1.2 mm 8 mps 734 mmHg 89%
    14:00 +7°C° 1.2 mm 9 mps 733 mmHg 89%
    15:00 +9°C° 2.3 mm 8 mps 732 mmHg 90%
    16:00 +9°C° 2.3 mm 7 mps 731 mmHg 91%
    17:00 +9°C° 2.3 mm 6 mps 729 mmHg 92%
    18:00 +10°C° 0.9 mm 6 mps 728 mmHg 93%
    19:00 +10°C° 0.9 mm 5 mps 727 mmHg 94%
    20:00 +12°C° 0.9 mm 4 mps 726 mmHg 95%
    21:00 +12°C° 0.7 mm 5 mps 725 mmHg 94%
    22:00 +10°C° 0.7 mm 5 mps 724 mmHg 93%
    23:00 +10°C° 0.7 mm 6 mps 724 mmHg 92%

    25 September, Tuesday

    Time Temperature Precipitation Wind Pressure Humidity
    00:00 +10°C° 0.6 mm 5 mps 724 mmHg 92%
    01:00 +9°C° 0.6 mm 5 mps 723 mmHg 93%
    02:00 +9°C° 0.6 mm 5 mps 723 mmHg 93%
    03:00 +9°C° 0.7 mm 5 mps 724 mmHg 92%
    04:00 +8°C° 0.7 mm 6 mps 724 mmHg 92%
    05:00 +8°C° 0.7 mm 6 mps 724 mmHg 92%
    06:00 +8°C° 0.4 mm 7 mps 725 mmHg 91%
    07:00 +6°C° 0.4 mm 7 mps 726 mmHg 89%
    08:00 +6°C° 0.4 mm 8 mps 727 mmHg 87%
    09:00 +6°C° 0.3 mm 8 mps 729 mmHg 86%
    10:00 +6°C° 0.3 mm 9 mps 730 mmHg 86%
    11:00 +6°C° 0.3 mm 9 mps 731 mmHg 85%
    12:00 +6°C° 0.3 mm 9 mps 732 mmHg 84%
    13:00 +6°C° 0.3 mm 10 mps 734 mmHg 83%
    14:00 +6°C° 0.3 mm 10 mps 735 mmHg 82%
    15:00 +5°C° 0.2 mm 9 mps 736 mmHg 82%
    16:00 +5°C° 0.2 mm 9 mps 737 mmHg 81%
    17:00 +5°C° 0.2 mm 9 mps 738 mmHg 81%
    18:00 +5°C° 0 mm 8 mps 739 mmHg 80%
    19:00 +4°C° 0 mm 8 mps 739 mmHg 79%
    20:00 +4°C° 0 mm 7 mps 740 mmHg 78%
    21:00 +3°C° 0 mm 7 mps 741 mmHg 77%
    22:00 +3°C° 0 mm 6 mps 741 mmHg 77%
    23:00 +2°C° 0 mm 6 mps 742 mmHg 76%
    Show more